This is the latest recevied weather packets stored in our database for station/object K4IR. If no packets are shown the sender has not sent any weather packets the latest 10 day(s).
| Time | Temp. | Humidity | Pressure | Rain* | Wind** | Luminosity | Snow |
|---|---|---|---|---|---|---|---|
| 1787379012 | 21.67° C | 99% | 1016.3 hPa | 0.51 mm | - | 0 W/m² | - |
| 1787378407 | 22.22° C | 99% | 1016.6 hPa | 3.05 mm | - | 0 W/m² | - |
| 1787377801 | 21.67° C | 99% | 1016.8 hPa | 3.56 mm | - | 0 W/m² | - |
| 1787377200 | 22.22° C | 99% | 1016.9 hPa | 3.05 mm | - | 0 W/m² | - |
| 1787376598 | 22.22° C | 99% | 1016.7 hPa | 6.1 mm | - | 0 W/m² | - |
| 1787375995 | 22.22° C | 99% | 1016.3 hPa | 1.78 mm | - | 0 W/m² | - |
| 1787375391 | 22.22° C | 99% | 1016.4 hPa | 1.27 mm | - | 0 W/m² | - |
| 1787374787 | 21.67° C | 99% | 1016.1 hPa | 0.51 mm | - | 0 W/m² | - |
| 1787374185 | 21.67° C | 99% | 1016.3 hPa | 1.78 mm | - | 0 W/m² | - |
| 1787373584 | 21.67° C | 99% | 1016.3 hPa | 1.78 mm | - | 0 W/m² | - |
| 1787372982 | 21.67° C | 99% | 1016.3 hPa | 2.29 mm | - | 0 W/m² | - |
| 1787372379 | 21.67° C | 99% | 1016.6 hPa | 2.29 mm | - | 0 W/m² | - |
| 1787371777 | 21.67° C | 99% | 1016.7 hPa | 0 mm | - | 0 W/m² | - |
| 1787371173 | 21.67° C | 99% | 1016.6 hPa | 0 mm | - | 0 W/m² | - |
| 1787370570 | 21.67° C | 99% | 1016.6 hPa | 0 mm | - | 0 W/m² | - |
| 1787369965 | 21.67° C | 99% | 1016.7 hPa | 0 mm | - | 0 W/m² | - |
| 1787369365 | 21.67° C | 99% | 1017 hPa | 0 mm | - | 0 W/m² | - |
| 1787368766 | 21.67° C | 99% | 1017.2 hPa | 0 mm | - | 0 W/m² | - |
| 1787368162 | 21.67° C | 99% | 1017.3 hPa | 0 mm | - | 0 W/m² | - |
| 1787367560 | 21.67° C | 99% | 1017 hPa | 0 mm | - | 0 W/m² | - |
| 1787366958 | 21.67° C | 99% | 1017.3 hPa | 0 mm | - | 0 W/m² | - |
| 1787366354 | 21.67° C | 99% | 1017.2 hPa | 0 mm | - | 0 W/m² | - |
| 1787365751 | 21.67° C | 99% | 1017.2 hPa | 0 mm | - | 0 W/m² | - |
| 1787365147 | 22.22° C | 99% | 1017.4 hPa | 0 mm | - | 0 W/m² | - |
| 1787364544 | 22.22° C | 99% | 1017.7 hPa | 0 mm | - | 0 W/m² | - |
* Rain latest hour (hover to see other rain measurements)
** Current wind speed in m/s (hover to see current wind gust speed)